Wind_Speed
48 50 48 45 47 49 50 51 52 50 47 50 52 51 49 43 40 38 36 35 34 34 36 39 39 39 38 37 36 35 34 34 35 34 34 34 34 35 36 36 36 37 38 39
51 52 49 50 50 51 52 54 54 53 52 55 55 54 52 48 43 40 37 35 36 36 37 38 39 40 40 40 40 39 38 36 35 35 35 35 35 35 37 38 39 40 42 43
51 52 51 51 52 53 54 55 56 57 57 56 58 58 56 49 45 41 37 37 38 38 39 40 41 42 42 42 42 41 40 39 38 38 37 36 37 37 38 40 42 44 45 47
50 50 51 52 53 53 56 54 57 59 60 61 60 62 61 55 50 46 45 44 42 42 42 43 43 44 44 44 44 44 43 43 42 42 42 41 41 41 41 43 44 45 47 48
49 49 50 51 51 53 55 56 58 60 62 65 65 64 64 62 58 55 53 51 48 47 47 47 47 47 47 47 48 48 47 47 47 47 47 47 47 47 47 46 46 48 49 51
50 51 52 52 52 53 55 57 60 62 63 67 66 65 65 65 63 61 60 58 55 53 51 51 50 50 51 51 51 51 51 51 51 51 51 51 51 51 52 52 51 51 52 54
53 52 53 53 53 53 54 56 59 62 64 65 66 66 66 65 64 63 63 63 61 60 58 56 55 55 55 55 56 56 56 56 55 55 55 55 56 56 56 56 57 56 56 57
57 56 55 54 54 55 56 56 59 62 65 66 66 69 68 66 66 66 66 65 64 63 62 62 61 60 60 59 60 60 60 60 59 59 59 59 59 59 60 60 61 61 61 62
59 61 60 58 58 59 60 61 61 63 65 68 69 71 71 68 67 67 66 66 66 65 65 65 65 65 64 63 63 62 62 62 62 62 62 62 62 62 63 64 65 65 66 67
60 63 63 62 62 61 61 60 61 61 62 65 69 69 70 70 69 68 67 67 67 67 67 67 67 67 66 66 66 66 65 64 64 63 63 64 64 64 66 67 68 69 70 70
60 61 63 64 63 60 59 59 60 61 63 65 67 68 68 69 70 70 70 70 69 69 68 68 68 68 68 68 69 68 68 67 66 66 66 66 67 67 68 70 71 72 72 73
59 60 62 63 62 60 60 59 60 63 66 68 70 70 65 67 68 69 70 70 70 70 70 70 70 70 71 71 71 71 72 72 72 71 70 70 71 72 72 74 74 75 75 75
60 62 63 63 62 61 61 59 59 61 63 65 67 67 63 63 65 67 69 70 71 72 73 74 74 74 75 75 75 76 77 77 77 77 76 76 76 77 77 78 79 79 79 79
60 62 63 64 63 63 63 62 60 58 58 59 58 58 57 59 61 63 66 69 71 74 75 77 78 79 81 81 82 83 83 83 83 83 83 82 82 82 83 84 84 84 84 83
62 65 65 67 67 67 68 68 67 67 67 69 69 69 68 69 71 72 74 75 76 78 80 82 84 85 87 88 90 90 90 90 90 90 88 87 86 86 87 88 89 90 89 88
63 67 68 70 69 72 75 74 74 75 76 79 81 82 82 83 83 84 85 86 86 86 88 89 92 93 93 94 95 95 95 95 95 94 94 93 92 91 90 90 90 91 92 92
67 69 72 75 74 78 81 76 77 79 79 81 83 83 85 86 87 88 88 89 89 90 90 91 93 93 94 95 97 98 98 99 99 99 99 99 98 96 96 95 95 94 93 93
72 73 77 80 80 84 83 79 79 80 80 80 81 82 84 85 86 86 87 88 88 89 90 91 92 94 95 96 98 100 101 102 103 104 104 104 104 102 101 101 100 100 99 98
74 75 77 79 82 85 83 78 75 76 78 77 77 78 80 82 84 83 84 85 86 87 88 89 90 91 92 93 95 97 98 99 100 101 102 103 104 104 103 103 102 102 102 101
76 74 73 73 73 75 73 69 66 66 68 67 68 70 72 74 76 76 75 76 77 78 78 80 81 83 84 85 88 90 91 93 94 95 96 97 97 98 99 99 99 99 99 100
70 67 66 64 64 65 61 59 57 57 58 59 61 62 63 65 67 67 66 67 69 71 73 75 77 79 80 82 85 87 88 90 91 92 92 93 93 94 94 95 94 95 95 95
59 58 56 56 56 57 55 53 52 51 52 53 55 57 60 62 63 65 66 68 69 71 73 75 78 79 80 82 85 87 88 89 90 91 91 91 91 92 92 93 93 93 93 93
51 51 52 53 52 49 50 50 50 51 53 55 57 59 61 64 65 67 68 70 71 72 74 75 77 79 79 81 84 86 87 88 89 89 89 90 90 90 90 91 91 91 91 92
47 48 51 52 48 46 48 50 51 53 56 57 59 60 62 64 66 67 68 68 69 70 71 73 75 77 78 79 81 83 85 86 86 86 85 85 85 85 85 86 87 88 88 89
44 47 50 50 47 49 49 51 53 55 56 58 59 60 62 63 64 64 64 64 65 66 68 71 73 74 75 76 77 78 79 79 79 78 77 77 77 77 77 78 79 81 82 83
42 47 49 49 47 52 52 52 54 55 56 58 59 60 60 60 60 59 59 61 63 65 66 68 68 69 69 69 69 70 70 70 69 67 66 66 66 67 68 69 69 71 74 75
Wind_Direction
277 277 280 281 278 279 281 282 283 285 284 281 280 281 282 281 279 278 277 276 273 269 266 267 270 272 274 274 273 272 270 268 267 268 268 268 267 266 267 269 269 270 270 270
276 277 278 277 277 277 278 278 280 281 280 280 281 281 281 282 282 279 277 275 272 269 266 266 266 267 269 271 272 273 271 269 267 266 265 265 265 266 267 267 268 268 267 266
273 275 275 275 274 274 274 276 278 278 278 279 280 281 280 281 281 280 276 273 270 269 268 266 266 266 267 269 271 271 272 271 270 268 266 265 264 264 264 265 264 263 262 262
271 271 271 272 273 273 274 274 275 276 277 278 278 279 281 282 281 279 276 273 270 268 266 265 265 264 265 266 267 268 269 271 271 271 270 268 266 264 262 262 263 264 264 263
271 271 270 271 271 271 272 273 274 274 275 277 278 279 281 284 285 284 281 278 275 271 267 265 264 263 262 262 263 264 266 268 270 271 272 272 270 268 266 265 264 264 264 264
273 273 273 272 271 271 272 273 273 273 274 275 277 278 279 280 282 284 283 282 280 277 273 269 267 264 263 262 262 262 263 265 266 268 270 270 270 270 270 269 267 266 265 265
276 275 275 275 274 273 272 272 272 272 272 273 275 275 275 277 279 280 281 282 282 281 279 277 273 269 267 265 264 264 264 264 265 266 267 268 268 268 268 268 267 267 266 265
277 275 274 273 273 273 271 270 270 272 272 272 272 272 273 275 277 278 279 280 280 280 280 279 278 276 274 272 270 269 268 267 267 267 267 267 267 266 266 266 266 265 264 263
277 276 275 275 274 273 273 273 274 275 274 272 270 272 272 274 276 277 279 280 280 280 279 279 279 279 278 276 275 274 272 271 270 269 268 268 267 266 265 264 264 263 263 263
281 280 278 278 277 277 278 278 278 278 278 277 272 270 273 273 275 276 278 278 278 278 278 278 278 278 277 277 277 276 275 273 271 270 268 267 265 264 263 263 262 262 262 262
283 282 282 281 282 283 280 278 276 275 274 275 276 275 275 276 277 279 279 278 278 277 277 276 276 275 275 275 275 275 274 272 270 269 267 265 263 262 260 260 261 261 261 261
284 282 282 283 283 280 276 275 274 273 275 275 274 274 275 276 276 276 275 274 274 273 273 273 273 272 272 272 272 271 271 270 269 268 266 264 263 261 259 258 258 258 258 259
283 281 282 283 282 280 277 275 273 273 273 273 273 275 274 272 270 268 268 268 268 268 268 269 269 269 270 270 270 269 269 269 268 267 266 264 263 261 259 258 257 257 257 257
279 278 278 279 280 278 276 275 274 271 270 270 268 267 267 267 265 264 264 264 264 265 266 267 267 268 269 269 269 269 269 269 269 268 267 266 264 262 261 259 258 257 257 256
278 278 278 277 276 275 273 271 270 268 267 265 264 264 265 265 265 264 264 264 264 264 266 267 268 269 270 270 271 272 272 272 271 270 269 268 266 265 263 262 260 259 257 256
279 280 280 278 278 275 273 272 272 271 270 269 268 268 268 267 267 267 267 268 268 268 269 270 271 272 272 273 273 273 273 273 273 273 272 270 268 267 265 264 262 261 259 257
282 282 281 280 279 276 274 276 275 273 271 271 271 271 271 270 270 270 271 271 272 272 272 273 274 274 274 274 274 274 274 274 274 274 273 272 271 269 267 265 263 262 260 259
284 284 282 282 281 277 280 278 275 273 272 271 271 272 272 272 272 272 273 274 274 275 275 275 275 275 275 276 275 275 275 275 275 275 274 274 273 271 269 267 265 263 261 259
284 284 282 281 280 280 280 279 278 276 274 273 274 274 274 274 274 274 276 277 277 277 278 278 278 278 278 278 278 277 277 277 276 276 275 275 274 273 271 269 267 265 263 260
284 283 281 281 281 281 284 282 280 279 278 277 277 277 277 278 278 278 278 280 280 281 281 281 280 280 280 280 280 279 279 278 278 277 276 276 275 274 273 271 269 267 265 262
284 283 282 283 282 283 284 284 283 282 282 281 281 281 281 282 283 283 283 283 283 283 283 283 282 282 282 282 281 280 280 279 278 278 277 276 276 275 274 272 271 269 267 264
284 283 283 281 280 284 286 287 286 286 284 284 284 284 285 285 286 286 286 286 286 286 286 286 285 285 285 284 284 283 282 281 281 280 279 277 276 275 274 272 271 270 268 266
282 282 280 279 281 284 285 285 285 285 285 285 285 286 287 287 288 289 289 290 290 289 289 289 289 288 288 287 287 286 285 284 283 281 280 279 277 275 274 272 270 269 267 266
281 280 279 280 282 283 283 284 285 285 286 287 287 288 288 288 289 290 290 291 291 292 292 292 291 291 291 290 289 288 287 286 284 283 282 280 278 276 274 272 270 268 266 265
282 281 280 281 283 282 282 284 286 286 287 287 287 288 288 289 290 291 293 294 294 295 295 295 295 294 294 292 291 290 289 288 286 285 284 283 281 279 276 273 271 269 266 265
283 282 283 284 284 285 285 286 286 287 288 288 289 289 290 291 292 294 296 297 298 299 299 298 298 297 297 296 294 293 291 290 290 289 287 285 284 282 279 277 273 271 268 264
Height
5810 5809 5809 5810 5806 5804 5801 5798 5795 5797 5798 5792 5789 5788 5790 5795 5797 5798 5797 5797 5795 5792 5788 5785 5784 5783 5782 5781 5781 5781 5780 5779 5779 5779 5779 5779 5780 5780 5780 5781 5781 5781 5780 5780
5799 5797 5799 5796 5795 5793 5790 5786 5785 5785 5784 5779 5776 5776 5778 5781 5784 5786 5786 5785 5783 5781 5778 5776 5775 5774 5773 5772 5771 5771 5770 5769 5768 5768 5768 5768 5769 5770 5770 5770 5770 5769 5768 5768
5787 5787 5785 5784 5782 5780 5779 5776 5774 5772 5769 5768 5765 5762 5763 5769 5771 5773 5773 5772 5770 5770 5768 5767 5765 5764 5763 5762 5762 5761 5760 5760 5759 5758 5758 5757 5757 5758 5758 5758 5757 5756 5755 5755
5774 5775 5773 5770 5769 5767 5766 5765 5762 5759 5756 5754 5754 5749 5750 5754 5757 5759 5759 5758 5757 5757 5756 5755 5755 5754 5753 5752 5750 5750 5749 5749 5748 5747 5747 5746 5745 5745 5745 5744 5744 5744 5743 5743
5761 5761 5760 5758 5758 5755 5753 5751 5750 5748 5744 5742 5740 5739 5740 5738 5739 5740 5740 5741 5741 5742 5742 5742 5742 5742 5741 5740 5739 5738 5737 5736 5736 5735 5735 5734 5733 5733 5732 5732 5732 5731 5730 5729
5748 5747 5746 5745 5744 5743 5741 5739 5736 5734 5732 5730 5729 5728 5727 5725 5725 5723 5722 5722 5723 5725 5725 5726 5727 5727 5726 5726 5725 5725 5724 5723 5723 5722 5721 5720 5720 5719 5719 5719 5719 5718 5717 5716
5734 5734 5733 5732 5730 5730 5729 5726 5721 5718 5718 5719 5716 5714 5716 5714 5712 5709 5708 5706 5706 5706 5706 5707 5708 5709 5709 5709 5709 5709 5709 5708 5708 5707 5706 5705 5704 5704 5703 5703 5703 5703 5703 5702
5718 5720 5721 5720 5718 5716 5715 5713 5710 5705 5703 5704 5703 5700 5703 5701 5699 5695 5693 5692 5690 5690 5689 5688 5688 5688 5689 5690 5691 5691 5691 5691 5690 5690 5689 5688 5688 5687 5686 5686 5686 5686 5686 5685
5702 5704 5706 5705 5703 5703 5700 5698 5696 5689 5685 5685 5687 5687 5688 5687 5684 5681 5679 5676 5674 5673 5671 5670 5669 5668 5668 5669 5669 5670 5671 5671 5671 5671 5670 5670 5670 5669 5669 5668 5667 5666 5666 5666
5686 5686 5689 5688 5688 5688 5686 5683 5679 5674 5668 5665 5668 5673 5673 5671 5668 5666 5663 5660 5657 5655 5653 5652 5651 5650 5649 5649 5649 5649 5649 5649 5649 5649 5649 5649 5649 5649 5649 5648 5647 5647 5646 5646
5670 5667 5669 5670 5673 5673 5669 5666 5663 5658 5653 5649 5646 5655 5658 5656 5651 5648 5645 5641 5639 5636 5634 5633 5632 5631 5630 5629 5628 5628 5627 5627 5627 5628 5628 5628 5628 5628 5628 5627 5627 5626 5626 5626
5655 5648 5647 5652 5656 5654 5650 5649 5648 5641 5636 5632 5627 5633 5640 5638 5633 5629 5626 5622 5619 5617 5615 5613 5612 5611 5610 5609 5608 5607 5606 5606 5606 5605 5606 5606 5606 5606 5606 5605 5604 5604 5604 5605
5639 5633 5629 5630 5637 5635 5631 5632 5630 5625 5619 5614 5610 5613 5616 5616 5612 5609 5606 5602 5599 5597 5595 5593 5591 5589 5588 5587 5586 5585 5584 5584 5583 5583 5583 5583 5582 5582 5582 5582 5582 5582 5582 5582
5622 5618 5617 5615 5616 5615 5612 5612 5611 5608 5602 5597 5595 5595 5595 5593 5589 5587 5585 5581 5578 5576 5574 5572 5570 5568 5566 5564 5563 5561 5559 5559 5558 5558 5558 5557 5557 5557 5557 5557 5557 5557 5558 5558
5604 5600 5600 5597 5598 5596 5592 5593 5594 5591 5586 5580 5577 5575 5576 5573 5569 5566 5563 5560 5557 5555 5553 5550 5547 5545 5542 5540 5537 5535 5533 5531 5531 5530 5530 5530 5530 5530 5530 5529 5530 5530 5531 5532
5587 5581 5578 5576 5579 5573 5568 5573 5574 5570 5567 5560 5555 5553 5552 5548 5546 5543 5541 5539 5536 5534 5531 5528 5525 5521 5518 5514 5511 5508 5505 5503 5501 5500 5500 5500 5500 5500 5500 5500 5500 5501 5502 5504
5569 5564 5556 5551 5555 5546 5544 5556 5553 5547 5544 5539 5531 5530 5523 5522 5520 5519 5517 5514 5513 5511 5508 5505 5501 5497 5494 5489 5485 5481 5477 5474 5472 5470 5468 5467 5467 5468 5468 5469 5469 5470 5472 5474
5548 5544 5533 5527 5526 5517 5527 5530 5528 5521 5518 5515 5508 5502 5498 5495 5496 5496 5493 5489 5489 5486 5483 5479 5475 5471 5468 5463 5457 5453 5449 5445 5441 5438 5436 5434 5432 5433 5433 5434 5435 5436 5438 5441
5528 5521 5511 5504 5497 5490 5498 5503 5500 5494 5490 5490 5484 5478 5473 5470 5471 5475 5470 5465 5463 5460 5456 5453 5448 5444 5441 5436 5429 5424 5421 5416 5412 5408 5404 5401 5398 5397 5397 5397 5397 5399 5401 5405
5507 5500 5492 5484 5477 5471 5477 5477 5474 5470 5466 5465 5460 5455 5451 5448 5448 5453 5449 5443 5439 5435 5431 5426 5422 5417 5414 5409 5401 5396 5392 5387 5382 5377 5374 5370 5366 5363 5361 5360 5361 5362 5363 5367
5484 5478 5473 5467 5459 5454 5459 5456 5454 5453 5449 5443 5439 5436 5432 5429 5426 5427 5426 5421 5417 5413 5408 5402 5397 5393 5389 5383 5374 5368 5363 5358 5352 5347 5344 5340 5336 5332 5329 5327 5327 5326 5327 5330
5464 5460 5456 5450 5445 5445 5442 5438 5437 5434 5430 5426 5422 5419 5415 5411 5409 5407 5404 5401 5396 5391 5386 5379 5372 5369 5365 5356 5346 5340 5335 5328 5321 5317 5313 5309 5305 5301 5298 5295 5295 5294 5293 5295
5447 5446 5438 5433 5434 5434 5427 5423 5421 5417 5413 5411 5407 5404 5399 5394 5391 5387 5384 5379 5374 5368 5361 5355 5348 5342 5338 5329 5318 5310 5304 5296 5290 5285 5280 5276 5272 5269 5265 5262 5261 5261 5260 5260
5433 5430 5421 5418 5421 5419 5413 5410 5407 5402 5398 5395 5391 5387 5383 5378 5374 5369 5365 5359 5353 5346 5339 5332 5324 5318 5312 5304 5293 5282 5273 5265 5258 5253 5249 5244 5239 5236 5234 5230 5228 5227 5228 5229
5421 5413 5407 5404 5407 5402 5401 5397 5391 5387 5383 5379 5375 5371 5366 5361 5357 5352 5347 5340 5334 5327 5319 5311 5302 5294 5286 5277 5268 5257 5246 5237 5230 5224 5219 5214 5208 5204 5202 5199 5197 5195 5197 5197
5408 5399 5393 5391 5392 5384 5384 5383 5377 5372 5368 5364 5359 5355 5349 5345 5340 5335 5329 5323 5316 5308 5300 5291 5282 5272 5263 5253 5244 5233 5222 5213 5205 5200 5194 5188 5182 5177 5173 5170 5170 5168 5167 5169